{"data":{"norad_id":51959,"epoch":"2026-09-19T14:09:34.031808Z","epoch_age_seconds":134782,"freshness":"FRESH","line1":"1 51959U 22025D   26262.58997722 -.00001173  00000+0 -26029-4 0  9993","line2":"2 51959  53.1606 215.0647 0001230  84.7374 275.3768 15.31699809250530","mean_motion":15.31699809,"eccentricity":0.000123,"inclination_deg":53.1606,"raan_deg":215.0647,"arg_perigee_deg":84.7374,"mean_anomaly_deg":275.3768,"bstar":-2.6029e-5,"rev_number":25053,"period_min":94.013199684351,"perigee_km":469.89815264632,"apogee_km":471.58297652721,"semimajor_km":6848.8775645868,"source":"CELESTRAK","updated_at":"2026-09-20T09:00:39.975634Z"}}